, CA

(GMT )
Point Mugu

Weather History for KNTD - October, 2012

Change the Weather History Date:

Tuesday, October 23, 2012

  Actual Average Record
Temperature  
Mean Temperature 58 °F -  
Max Temperature 69 °F 67 °F 95 °F (2007)
Min Temperature 51 °F 50 °F 48 °F (1996)
Degree Days  
Heating Degree Days 6    
Growing Degree Days 8 (Base 50)    
Moisture  
Dew Point 56 °F    
Average Humidity 90    
Maximum Humidity 100    
Minimum Humidity 73    
Precipitation  
Precipitation 0.01 in - - ()
Sea Level Pressure  
Sea Level Pressure 29.97 in    
Wind  
Wind Speed 5 mph (NW)    
Max Wind Speed 18 mph    
Max Gust Speed 26 mph    
Visibility 7 miles    
Events Rain    
Averages and records for this station are not official NWS values.
T = Trace of Precipitation, MM = Missing Value Source: NWS Daily Summary

Daily Weather History Graph

Daily Weather History Graph

Search for Another Location

Airport or City:

Trip Planner

Search our weather history database for the weather conditions in past years. The results will help you decide how hot, cold, wet, or windy it might be!

Date:

Astronomy

Oct. 23, 2012 Rise Set
Actual Time 7:08 AM PDT 6:12 PM PDT
Civil Twilight 6:43 AM PDT 6:37 PM PDT
Nautical Twilight 6:13 AM PDT 7:06 PM PDT
Astronomical Twilight 5:44 AM PDT 7:35 PM PDT
Moon 2:44 PM PDT (10/23) 1:21 AM PDT (10/23)
Length of Visible Light 11h 54m
Length of Day
11h 03m
Waxing Gibbous, 67% of the Moon is Illuminated
Oct 23
Waxing Gibbous
Oct 29
Full
Nov 6
Last Quarter
Nov 13
New
Nov 20
First Quarter

Hourly Weather History & Observations

Time (PDT) Temp. Dew Point Humidity Pressure Visibility Wind Dir Wind Speed Gust Speed Precip Events Conditions
12:39 AM 59.0 °F 59.0 °F 100% 29.98 in 9.0 mi Calm Calm - 0.00 in Rain Light Rain
12:54 AM 59.0 °F 59.0 °F 100% 29.99 in 9.0 mi Calm Calm - 0.00 in Rain Light Rain
1:08 AM 57.2 °F 57.2 °F 100% 29.98 in 8.0 mi Calm Calm - 0.00 in Rain Light Rain
1:54 AM 57.0 °F 57.0 °F 100% 29.98 in 8.0 mi Calm Calm - 0.00 in Rain Light Rain
2:02 AM 57.2 °F 57.2 °F 100% 29.97 in 8.0 mi NNE 3.5 mph - 0.00 in Rain Light Rain
2:15 AM 55.4 °F 55.4 °F 100% 29.97 in 7.0 mi Calm Calm - 0.00 in Rain Light Rain
2:54 AM 55.9 °F 55.9 °F 100% 29.98 in 7.0 mi Calm Calm - 0.00 in Rain Light Rain
3:54 AM 55.0 °F 55.0 °F 100% 29.96 in 7.0 mi NNE 3.5 mph - 0.00 in Rain Light Rain
4:09 AM 55.4 °F 55.4 °F 100% 29.95 in 8.0 mi NE 3.5 mph - 0.00 in Rain Light Rain
4:35 AM 53.6 °F 53.6 °F 100% 29.95 in 7.0 mi East 5.8 mph - 0.00 in   Partly Cloudy
4:54 AM 54.0 °F 54.0 °F 100% 29.96 in 7.0 mi ENE 5.8 mph - 0.00 in   Partly Cloudy
5:54 AM 55.0 °F 55.0 °F 100% 29.98 in 7.0 mi Variable 3.5 mph - N/A   Partly Cloudy
5:58 AM 55.4 °F 55.4 °F 100% 29.97 in 7.0 mi NE 3.5 mph - N/A   Partly Cloudy
6:54 AM 51.1 °F 51.1 °F 100% 29.98 in 7.0 mi NNE 3.5 mph - N/A   Partly Cloudy
7:54 AM 53.1 °F - N/A% 29.99 in 7.0 mi North 4.6 mph - N/A   Partly Cloudy
8:54 AM 57.0 °F 51.6 °F 82% 30.00 in 7.0 mi NE 4.6 mph - N/A   Clear
9:54 AM 62.1 °F 57.9 °F 86% 30.00 in 7.0 mi North 3.5 mph - N/A   Partly Cloudy
10:54 AM 64.9 °F 55.9 °F 73% 30.00 in 7.0 mi West 8.1 mph - N/A   Partly Cloudy
11:54 AM 66.0 °F 57.0 °F 73% 30.00 in 7.0 mi West 9.2 mph - N/A   Partly Cloudy
12:54 PM 66.9 °F 57.9 °F 73% 29.98 in 7.0 mi West 18.4 mph 24.2 mph N/A   Partly Cloudy
1:54 PM 66.9 °F 57.9 °F 73% 29.96 in 7.0 mi West 18.4 mph - N/A   Scattered Clouds
2:54 PM 66.9 °F 60.1 °F 79% 29.94 in 7.0 mi West 15.0 mph 25.3 mph N/A   Scattered Clouds
3:54 PM 66.9 °F 59.0 °F 76% 29.94 in 7.0 mi West 18.4 mph 26.5 mph N/A   Scattered Clouds
4:54 PM 64.9 °F 57.9 °F 78% 29.94 in 7.0 mi West 16.1 mph 26.5 mph N/A   Scattered Clouds
5:54 PM 63.0 °F 57.0 °F 81% 29.92 in 9.0 mi West 17.3 mph 26.5 mph N/A   Scattered Clouds
6:54 PM 62.1 °F 57.0 °F 84% 29.93 in 7.0 mi West 17.3 mph 26.5 mph N/A   Scattered Clouds
7:54 PM 61.0 °F 55.9 °F 83% 29.94 in 7.0 mi West 17.3 mph 24.2 mph N/A   Clear
8:54 PM 60.1 °F 55.0 °F 83% 29.94 in 7.0 mi West 11.5 mph - N/A   Clear
9:54 PM 60.1 °F 55.0 °F 83% 29.95 in 7.0 mi West 10.4 mph - N/A   Clear
10:54 PM 59.0 °F 55.9 °F 90% 29.96 in 7.0 mi NNW 3.5 mph - N/A   Clear
11:54 PM 55.9 °F 55.9 °F 100% 29.96 in 9.0 mi Calm Calm - N/A   Clear